Regional Weather Roundup
Issued by NWS Wakefield, VA

Home | Current Version | Previous Version | Graphics & Text | Print | Product List | Glossary On
Versions: 1 2 3 4 5 6 7 8 9 10 11 12 13 14 15 16 17 18 19 20 21 22 23 24 25 26 27 28
000
ASUS41 KAKQ 300610
RWRAKQ

REGIONAL WEATHER ROUNDUP
NATIONAL WEATHER SERVICE WAKEFIELD VA
200 AM EDT THU OCT 30 2014

Note: "fair" indicates few or no clouds below 12,000 feet with no
significant weather and/or obstructions to visibility. * = Denotes
station may not report precipitation (e.g., rain,snow,etc.),
thunder or fog.

VAZ042-051-052>054-056-300700-
NORTHERN VIRGINIA

CITY           SKY/WX    TMP DP  RH WIND       PRES   REMARKS
WASH NATIONAL  CLEAR     51  46  83 CALM      30.00S
DULLES         CLEAR     41  40  96 CALM      30.00S
FORT BELVOIR   CLEAR     43  41  93 CALM      30.00S FOG
QUANTICO       CLEAR     48  45  89 NW8       30.01S
FREDERICKSBRG* CLEAR     46  46 100 CALM      30.00S
STAFFORD*      MOCLDY    39  39 100 CALM      30.04S FOG
WARRENTON      FOG       40  40 100 CALM      30.00S VSB 1
CULPEPER*      FOG       39  39 100 CALM      30.01S VSB 1
MANASSAS*      CLOUDY    43  43 100 CALM      30.01S VSB 1/4
LEESBURG*      CLEAR     43  43 100 CALM      30.01S
WINCHESTER     CLEAR     45  34  65 NW6       30.00S
FRONT ROYAL*   CLEAR     41  41 100 CALM      30.00S
LURAY*         CLEAR     41  41 100 CALM      30.01S
$$

VAZ048-049-060>072-079>083-300700-
CENTRAL AND SOUTH CENTRAL VIRGINIA...AND NORTH CENTRAL NORTH CAROLINA

CITY           SKY/WX    TMP DP  RH WIND       PRES   REMARKS
RICHMOND       LGT RAIN  56  52  86 W5        30.01R
CHESTERFIELD*  CLOUDY    54  43  66 CALM      30.03R
PETERSBURG*    CLOUDY    53  52  95 CALM      30.02S
HANOVER        CLOUDY    52  51  97 CALM      30.03R
TAPPAHANNOCK*  MOCLDY    52  49  90 CALM      30.00S
CHARLOTTSVILLE FOG       45  44  97 CALM      30.01R VSB 1
ORANGE*        FOG       41  41 100 CALM      30.02R VSB<1/4
LOUISA*        FOG       43  43 100 CALM      30.00R VSB 1/2
FARMVILLE*     CLOUDY    52  52 100 CALM      30.01R FOG
CREWE*         CLOUDY    55  53  94 CALM      30.02R
FORT PICKETT*  CLOUDY    54  53  96 S3        30.02S
LUNENBURG*     CLOUDY   -20 -21  96 CALM      30.01F
SOUTH HILL*    LGT RAIN  55  55 100 N6        30.06F
LAWRENCEVILLE* CLOUDY    53  52  97 CALM      30.03R
ROANOKE RAPIDS CLOUDY    54  52  94 NE5       30.01S
RALEIGH        MOCLDY    55  47  74 NE5       30.01R
$$

VAZ088>098-300700-
SOUTHEAST VIRGINIA

CITY           SKY/WX    TMP DP  RH WIND       PRES   REMARKS
NORFOLK        CLOUDY    55  51  86 E5        29.97F
VIRGINIA BEACH LGT RAIN  56  51  84 NE9       29.96F
NORFOLK NAVAL  LGT RAIN  58  51  78 E7        29.99S
WEST POINT*    CLOUDY    55  53  92 NW3       30.01R
NEWPORT NEWS   CLOUDY    58  53  84 CALM      29.99R
LANGLEY AFB    DRIZZLE   57  55  94 N3        29.99R
FORT EUSTIS    LGT RAIN  55  55 100 W8        30.02R
WILLIAMSBURG*  MOCLDY    55  54  94 W9        30.04R
HR EXEC AP*    CLOUDY    54  50  87 W8        30.03R
FRANKLIN*      CLOUDY    54 N/A N/A CALM      30.00S
WAKEFIELD      LGT RAIN  54  52  93 CALM      30.01R FOG
$$

VAZ020-022-025-037-045-300700-
WEST CENTRAL AND SOUTHWEST VIRGINIA

CITY           SKY/WX    TMP DP  RH WIND       PRES   REMARKS
STAUNTON*      CLEAR     37  33  89 CALM      30.03S
HOT SPRINGS VA CLEAR     41  32  70 NW9G16    29.99S
LYNCHBURG      MOCLDY    43  39  86 CALM      30.03R
DANVILLE       CLOUDY    54  47  77 NW3       30.03R
SOUTH BOSTON*  NOT AVBL
MARTINSVILLE   MOCLDY    45  44  96 CALM      30.05F
ROANOKE        CLEAR     47  36  65 W3        30.04S
BLACKSBURG     CLEAR     37  37 100 CALM      30.06S
DUBLIN*        CLEAR     45  38  75 W3        30.06S
MARION*        MOCLDY    43  42  95 W9        30.08S
HILLSVILLE*    CLEAR     43  42  93 NW9       30.04F
RICHLANDS*     CLEAR     47  42  84 W6        30.07S
WISE*          CLEAR     45  32  61 CALM      30.09S
ABINGDON*      PTCLDY    40  40  99 CALM      30.08F FOG
$$

MDZ021>025-VAZ099-100-300700-
SOUTHERN MARYLAND AND THE DELMARVA PENINSULA

CITY           SKY/WX    TMP DP  RH WIND       PRES   REMARKS
PATUXENT RIVER CLEAR     50  48  93 W3        29.98F
BAY BRIDGE APT FOG       48  48 100 CALM      29.99S VSB 3/4
LEONARDTOWN    PTCLDY    48  46  93 CALM      30.00F
DOVER          CLEAR     49  49 100 W1        29.96F
GEORGETOWN     PTCLDY    50  46  86 CALM      29.99F
EASTON         CLEAR     48  48 100 CALM      30.02F
CAMBRIDGE      PTCLDY    52  48  87 CALM      29.98F
SALISBURY      CLOUDY    52  48  86 N3        29.97F
OCEAN CITY     LGT RAIN  53  50  89 N5        29.97F
WALLOPS ISLAND CLOUDY    53  49  86 NE5       29.96F
ACCOMACK*      CLOUDY    52  48  87 CALM      29.96F
$$

NCZ012>017-030>032-300700-
EASTERN NORTH CAROLINA

CITY           SKY/WX    TMP DP  RH WIND       PRES   REMARKS
ELIZABETH CITY CLOUDY    57  52  83 N13       29.96S
AHOSKIE*       NOT AVBL
EDENTON*       LGT RAIN  56  54  94 N12       30.00R
CURRITUCK*     LGT RAIN  56  52  86 N13G22    29.97S
KILL DEVIL HLS RAIN      60  57  92 N12G22    29.94S
MANTEO         RAIN      60  57  90 N17G23    29.94F
CAPE HATTERAS  CLOUDY    65  62  90 N10       29.92S
TARBORO*       CLOUDY    58  56  94 N8        30.00R
GOLDSBORO      CLOUDY    60  60  98 N2        29.97R
WASHINGTON     CLOUDY    60  57  91 N9        29.98R
GREENVILLE     CLOUDY    59  57  94 N6        30.00S
NEW BERN       CLOUDY    64  60  87 N8        29.96R
WILMINGTON     RAIN      68  65  90 NW10      29.94R
$$

VAZ048-300700-
ELSEWHERE

CITY           SKY/WX    TMP DP  RH WIND       PRES   REMARKS
HARRISBURG PA  FOG       45  45 100 CALM      29.98S VSB 1/8
BALTIMORE      CLEAR     43  43 100 CALM      29.98F
ANNAPOLIS      CLEAR     48  46  93 CALM      29.99S
ANDREWS AFB    CLEAR     43  43 100 S2        29.99S
WILMINGTON DE  FOG       46  46 100 W3        29.99S VSB 1/4
PHILADELPHIA   CLEAR     48  45  89 SW7       29.98S FOG
WILDWOOD NJ*   PTCLDY    54  46  76 CALM      29.99F
ATLANTIC CITY  PTCLDY    47  44  90 W3        29.98S
HENDERSON NC   CLOUDY    54  47  76 CALM      30.02R
GREENSBORO     MOCLDY    53  49  86 N3        30.01F
ROCKY MOUNT    CLOUDY    59  56  89 N7        29.99F
FAYETTEVILLE   CLOUDY    61  49  64 N9        29.98S
CHARLOTTE      MOCLDY    56  41  57 N5        30.03R
$$

VAZ100-300700-
MARINE

STATION/POSITION TIME  TEMP    WIND        PRES    WAVE   SWELL
                       AIR SEA DIR/SP/G            HT/PER HT/PER
                 (UTC) (F)     (DEG/KT/KT) (MB)    (FT/S) (FT/S)
44066 TX TWR #4  0600   59 65  330/ 17/ 21 1012.7F   4/ 5
CAPE MAY NJ      0600   56 65  330/  3/  6 1014.7F
LEWES DE         0600   55 61  300/  4/  6 1015.1R
15NM E FENWICK I 0600   59 63              1014.7F   2/ 5
OCEAN-CITY-INLET 0600   55 63   10/  6/  7 1014.5F
WACHAPREAGUE VA  0600   53 64  360/  4/  6 1014.6F
THOMAS POINT MD  0600   54 62  270/  5/  5 1016.7S
GOOSES REEF MD   0600   58        CALM     1016.0S
COVE POINT MD    0600   56     290/  1/  3 1015.3F
SOLOMONS ISLAND  0600      63                N/A
BISHOPS HEAD MD  0600   56 62   20/  3/  7 1014.5F
PINEY POINT MD   0600           30/  2/  3   N/A
POTOMAC MD       0600   59      50/  6/  6 1014.5F
CAMBRIDGE MD     0600   52 61  190/  3/  3 1015.1F
LEWISETTA VA     0600   58 62  360/  1/  2 1014.9R
RAPPAHANNOCK LGT 0600           40/ 11/ 12 1015.0R
STINGRAY PT      0600   59      50/ 10/ 14 1015.3S
YORK RVR RNG VA  0600   59      70/ 13/ 15 1014.0R
YORKTOWN VA      0600   58 64   40/  6/  7 1014.5R
JAMESTOWN VA     0600   54     350/  2/  4   N/A
DOMINION TERM VA 0600   58      30/  3/  5 1014.8R
KIPTOPEKE VA     0600      67   70/  6/  8   N/A
CHES BAY BRIDGE  0600   58 64   50/ 14/ 17 1014.1R
CHESAPEAKE LGHT  0500   57      10/ 20/ 23 1015.7R
WILLOUBY STN VA  0600   58      60/ 10/ 13 1013.5R
S CRANEY ISL VA  0600           50/  6/  8 1014.6R
CAPE HENRY BUOY  0600      65                N/A     5/ 5
1ST LANDING BUOY 0600   58      50/ 14/ 17 1014.5F
CAPE CHARLES BUO 0600      66                N/A     4/ 5   2/ 7
64NM E OF VA BCH 0600   63 67  360/ 19/ 23 1012.8F   5/ 5
DUCK PIER NC     0600   60 68   10/ 21/ 27 1013.1F
44100 DUCK FRF   0600      67                N/A     5/ 5
OREGON INLET NC  0600   62 68  360/ 13/ 21 1013.5R
HATTERAS NC      0600   67 72  350/ 14/ 16 1013.7S
DIAMOND SHLS NC  0600   75     230/ 17/ 21 1012.6F   4/ 5
CAPE LOOKOUT NC  0500   72     250/ 10/ 13 1013.4F
$$



USA.gov is the U.S. government's official web portal to all federal, state and local government web resources and services.